[[{"header":{"parameterUnit":"m.s-1","parameterCategory":2,"la1":30.2991,"la2":30.254,"lo1":-89.0895,"lo2":-89.0444,"dy":0.0017,"dx":0.0017,"nx":28,"ny":28,"refTime":"2025-12-01T09:00:00:Z","depth":"0","parameterNumber":2,"parameterNumberName":"U-component_of_CURRENTS"},"data":[0,0,0,0,0,0,0,0,0,0,0,0,0,0,0,0,0,0,0,0,0,0,0,0,0,0,0,0,0,0,0,0,0,0,0,0,0,0,0,0,0,0,0,0,0,0,0,0,0,0,0,0,0,0,0,0,0,0,0.2087,0.2087,0,0.2081,0.208,0.208,0.2058,0.2058,0.2057,0.2057,0.2023,0.2022,0.2022,0,0,0,0,0,0,0,0,0,0,0,0,0,0.2086,0.2086,0.2087,0.2087,0.2087,0.2081,0.208,0.208,0.2058,0.2058,0.2057,0.2057,0.2023,0.2022,0.2022,0,0,0,0,0,0,0,0,0,0,0,0,0,0.2082,0.2086,0.2087,0.2077,0.2076,0.2081,0.208,0.208,0.2058,0.2058,0.2057,0.2057,0.2023,0.2022,0.2022,0.2027,0,0,0.2019,0.2019,0,0,0,0,0,0,0,0,0.2082,0.2082,0.2078,0.2077,0.2076,0.2071,0.2068,0.2062,0.2058,0.2063,0.2057,0.2056,0.2038,0.2036,0.2034,0.2025,0.2024,0.2019,0.2018,0.2018,0.2018,0,0,0,0,0,0,0,0.2082,0.2082,0.2083,0.2078,0.2077,0.2074,0.2073,0.2066,0.2052,0.2063,0.2061,0.2063,0.2037,0.2035,0.2033,0.2023,0.2019,0.2018,0.2018,0.2017,0.2033,0.2034,0,0,0,0,0,0,0.2087,0.2082,0.2083,0.2083,0.208,0.2075,0.2073,0.2072,0.2052,0.205,0.2064,0.2062,0.2036,0.2034,0.2032,0.2052,0.2018,0.2017,0.2017,0.2032,0.2033,0.2034,0,0,0,0,0,0,0.2087,0.2087,0.2083,0.2084,0.2083,0.2075,0.2074,0.2072,0.2072,0.2054,0.205,0.2066,0.2036,0.2033,0.2034,0.205,0.2017,0.2016,0.2031,0.2033,0.2034,0.2082,0,0,0,0,0,0,0.2087,0.2087,0.2089,0.2084,0.2084,0.2092,0.2075,0.2072,0.2075,0.2073,0.2055,0.2051,0.2035,0.2035,0.2033,0.2048,0.2015,0.203,0.2032,0.2033,0.208,0.2085,0.209,0,0,0,0,0,0.2087,0.2092,0.2089,0.2089,0.2086,0.2093,0.2092,0.2084,0.2075,0.208,0.207,0.2051,0.2045,0.2035,0.2032,0.2047,0.2029,0.2031,0.2033,0.2077,0.2084,0.209,0,0,0,0,0,0,0.2094,0.209,0.2087,0.2091,0.2095,0.209,0.2094,0.2089,0.2085,0.2083,0.2062,0.2058,0.2066,0.2052,0.2042,0.2058,0.2035,0.2036,0.2069,0.2075,0.2081,0.2087,0.2015,0,0,0,0,0,0.2097,0.2098,0.2098,0.2103,0.2106,0.2102,0.2104,0.21,0.2096,0.2094,0.208,0.2072,0.2073,0.207,0.2065,0.2072,0.2074,0.2081,0.2086,0.2091,0.2096,0.212,0.2128,0.2041,0.2041,0.2041,0,0,0.2101,0.21,0.2101,0.2105,0.2106,0.2116,0.2101,0.2109,0.2117,0.2091,0.2095,0.2089,0.2079,0.2089,0.2092,0.2079,0.2118,0.2094,0.2098,0.21,0.2123,0.2131,0.2139,0.2043,0.2043,0.2042,0,0,0.2115,0.2111,0.2119,0.2124,0.2131,0.2131,0.2136,0.2134,0.2133,0.2141,0.2127,0.2133,0.2125,0.2126,0.2125,0.2158,0.2146,0.2154,0.2185,0.2209,0.2216,0.2223,0.2242,0.225,0.2156,0.2156,0.2156,0,0.2123,0.2129,0.2124,0.2136,0.2143,0.2139,0.2154,0.2156,0.2155,0.2164,0.2149,0.216,0.2146,0.217,0.2178,0.217,0.218,0.2161,0.2217,0.2223,0.2229,0.2247,0.2255,0.2159,0.2159,0.2158,0.2158,0,0.2142,0.215,0.2157,0.2168,0.2177,0.2189,0.2194,0.2203,0.2202,0.2206,0.2227,0.2216,0.2225,0.2222,0.2207,0.2243,0.2236,0.2222,0.2201,0.224,0.2257,0.2264,0.2163,0.2162,0.2161,0.216,0,0,0.2154,0.2167,0.217,0.2179,0.2194,0.2202,0.2225,0.2246,0.2269,0.2269,0.2298,0.2298,0.2296,0.2295,0.2282,0.2296,0.2341,0.2276,0.2276,0.2296,0.2396,0.2412,0.2421,0.2338,0.2339,0.234,0.2393,0,0.2172,0.2194,0.2198,0.2224,0.2236,0.2245,0.2266,0.2287,0.2303,0.2329,0.2333,0.2352,0.2323,0.2332,0.2344,0.2342,0.2362,0.2327,0.2353,0.2354,0.2365,0.2431,0.247,0.2523,0.24,0.2401,0.2402,0,0.219,0.2202,0.2225,0.225,0.2257,0.2273,0.2313,0.2333,0.2374,0.2391,0.2419,0.2419,0.2444,0.2409,0.244,0.2421,0.2414,0.2409,0.241,0.2413,0.2385,0.2462,0.254,0.2573,0.2413,0.2413,0.2412,0,0.2193,0.2221,0.2237,0.2245,0.2274,0.2291,0.231,0.2352,0.2386,0.2434,0.2468,0.2493,0.2514,0.2514,0.2504,0.2477,0.2537,0.2497,0.2508,0.2509,0.2541,0.2542,0.2655,0.2525,0.2525,0.2525,0.2524,0,0.2205,0.2219,0.2239,0.2248,0.2279,0.2297,0.2341,0.2372,0.2431,0.2479,0.2497,0.2545,0.2542,0.257,0.2544,0.2566,0.2575,0.2534,0.2534,0.2559,0.2562,0.2588,0.2572,0.2527,0.2526,0.2526,0.2525,0,0.2201,0.2214,0.2236,0.2266,0.2279,0.23,0.2359,0.2393,0.2452,0.2518,0.2538,0.2605,0.2648,0.2646,0.2659,0.2631,0.2604,0.2634,0.2664,0.2666,0.269,0.2673,0.2576,0.2491,0.2657,0.2658,0.2658,0,0.2198,0.2208,0.2243,0.2256,0.2267,0.2304,0.2331,0.2397,0.2442,0.2552,0.2585,0.2661,0.2723,0.2769,0.2753,0.2749,0.2651,0.2749,0.2699,0.2724,0.2705,0.2527,0.2448,0.2762,0.2763,0.2765,0.2766,0,0.2192,0.2204,0.2218,0.2246,0.2271,0.2302,0.2349,0.2395,0.2474,0.2552,0.2653,0.272,0.2803,0.2845,0.2852,0.2836,0.2694,0.2773,0.2803,0.2811,0.2621,0.2529,0.2685,0.2777,0.2776,0.2775,0.2774,0.2774,0.2184,0.2189,0.2206,0.2229,0.2254,0.228,0.2295,0.2373,0.2457,0.2573,0.2665,0.28,0.2924,0.2965,0.2908,0.2925,0.2764,0.29,0.2882,0.27,0.2608,0.2785,0.2869,0.2868,0.2868,0.2868,0.2867,0,0.2162,0.2168,0.2187,0.2201,0.2202,0.2233,0.2285,0.2307,0.2389,0.2576,0.2686,0.2923,0.3027,0.3077,0.3145,0.3085,0.2871,0.3029,0.2834,0.2747,0.2962,0.2965,0.3071,0.3071,0.3071,0.307,0.307,0.307,0.2151,0.2146,0.215,0.2137,0.2144,0.2132,0.2147,0.2205,0.2329,0.2535,0.2719,0.2868,0.312,0.3354,0.3377,0.3275,0.3027,0.2931,0.2807,0.3077,0.3064,0.3051,0.3054,0.3176,0.3177,0.2522,0.2518,0.2515]},{"header":{"parameterUnit":"m.s-1","parameterCategory":2,"la1":30.2991,"la2":30.254,"lo1":-89.0895,"lo2":-89.0444,"dy":0.0017,"dx":0.0017,"nx":28,"ny":28,"refTime":"2025-12-01T09:00:00:Z","depth":"0","parameterNumber":3,"parameterNumberName":"V-component_of_CURRENTS"},"data":[0,0,0,0,0,0,0,0,0,0,0,0,0,0,0,0,0,0,0,0,0,0,0,0,0,0,0,0,0,0,0,0,0,0,0,0,0,0,0,0,0,0,0,0,0,0,0,0,0,0,0,0,0,0,0,0,0,0,-0.0172,-0.0172,0,-0.019,-0.019,-0.019,-0.0212,-0.0213,-0.0213,-0.0213,-0.0243,-0.0243,-0.0244,0,0,0,0,0,0,0,0,0,0,0,0,0,-0.0179,-0.0179,-0.0171,-0.0172,-0.0172,-0.019,-0.019,-0.019,-0.0212,-0.0213,-0.0213,-0.0213,-0.0243,-0.0243,-0.0244,0,0,0,0,0,0,0,0,0,0,0,0,0,-0.0185,-0.0178,-0.0171,-0.0184,-0.0186,-0.019,-0.019,-0.019,-0.0212,-0.0213,-0.0213,-0.0214,-0.0242,-0.0243,-0.0244,-0.024,0,0,-0.0246,-0.0247,0,0,0,0,0,0,0,0,-0.0184,-0.0185,-0.0182,-0.0184,-0.0185,-0.0199,-0.0203,-0.0207,-0.0212,-0.0203,-0.0213,-0.0214,-0.0228,-0.023,-0.0233,-0.0241,-0.0243,-0.0246,-0.0247,-0.0247,-0.0247,0,0,0,0,0,0,0,-0.0184,-0.0184,-0.0179,-0.0183,-0.0184,-0.0197,-0.0198,-0.0204,-0.0214,-0.0204,-0.0205,-0.0206,-0.0229,-0.0233,-0.0234,-0.0243,-0.0246,-0.0247,-0.0247,-0.0248,-0.0251,-0.0251,0,0,0,0,0,0,-0.0179,-0.0183,-0.0179,-0.018,-0.0185,-0.0197,-0.0198,-0.0194,-0.0213,-0.0216,-0.0206,-0.0207,-0.0231,-0.0233,-0.0235,-0.0224,-0.0247,-0.0248,-0.0248,-0.0252,-0.0251,-0.0251,0,0,0,0,0,0,-0.0179,-0.0178,-0.0178,-0.0182,-0.0183,-0.0196,-0.0192,-0.0194,-0.0198,-0.0215,-0.0218,-0.0207,-0.0232,-0.0234,-0.0237,-0.0226,-0.0248,-0.0249,-0.0252,-0.0252,-0.0251,-0.0207,0,0,0,0,0,0,-0.0179,-0.0178,-0.0173,-0.0181,-0.0182,-0.0173,-0.0191,-0.0195,-0.0198,-0.02,-0.0217,-0.022,-0.0232,-0.0236,-0.0238,-0.0228,-0.0249,-0.0253,-0.0252,-0.0251,-0.0209,-0.0205,-0.0202,0,0,0,0,0,-0.0179,-0.0167,-0.0173,-0.0172,-0.0176,-0.0173,-0.0174,-0.0186,-0.0197,-0.0193,-0.0206,-0.0219,-0.0233,-0.0236,-0.0239,-0.0228,-0.0253,-0.0252,-0.0251,-0.0211,-0.0206,-0.0202,0,0,0,0,0,0,-0.017,-0.0168,-0.0175,-0.0164,-0.0167,-0.0176,-0.0173,-0.0183,-0.019,-0.0194,-0.0213,-0.0217,-0.0216,-0.0228,-0.0231,-0.0228,-0.0246,-0.0245,-0.0214,-0.021,-0.0206,-0.0193,-0.025,0,0,0,0,0,-0.0165,-0.0156,-0.016,-0.0152,-0.0151,-0.0163,-0.0164,-0.0171,-0.0179,-0.0183,-0.0194,-0.0207,-0.0214,-0.0217,-0.0226,-0.0221,-0.0241,-0.0217,-0.0214,-0.0211,-0.0202,-0.0225,-0.0222,-0.0248,-0.0248,-0.0248,0,0,-0.0161,-0.0158,-0.0154,-0.0149,-0.0153,-0.0141,-0.0164,-0.0162,-0.0153,-0.0184,-0.0177,-0.0195,-0.0211,-0.0208,-0.0208,-0.0216,-0.0215,-0.0209,-0.0207,-0.0199,-0.0224,-0.0221,-0.0219,-0.0248,-0.0248,-0.0248,0,0,-0.014,-0.0144,-0.0127,-0.0123,-0.0122,-0.0127,-0.0124,-0.0131,-0.0135,-0.0132,-0.0153,-0.0163,-0.0172,-0.018,-0.0186,-0.0168,-0.0196,-0.0173,-0.014,-0.0163,-0.0161,-0.0159,-0.0185,-0.0186,-0.0169,-0.0169,-0.0168,0,-0.0136,-0.0113,-0.0122,-0.0103,-0.0093,-0.0117,-0.0094,-0.01,-0.0108,-0.0104,-0.0124,-0.014,-0.0158,-0.0151,-0.0147,-0.0159,-0.0178,-0.0154,-0.0158,-0.0156,-0.0156,-0.0182,-0.0184,-0.0166,-0.0167,-0.0167,-0.0167,0,-0.0099,-0.0082,-0.0071,-0.0052,-0.0045,-0.0031,-0.0036,-0.0036,-0.0049,-0.0053,-0.0055,-0.0086,-0.0093,-0.0104,-0.012,-0.0118,-0.0136,-0.0152,-0.0167,-0.015,-0.018,-0.0182,-0.0163,-0.0164,-0.0165,-0.0165,0,0,-0.0084,-0.0051,-0.0047,-0.0023,-0.0015,-0.0001,0.001,0.0022,0.0038,0.0012,0.0027,0.0001,-0.002,-0.0029,-0.0056,-0.0077,-0.0096,-0.0108,-0.011,-0.0131,-0.0148,-0.0173,-0.0179,-0.0114,-0.0114,-0.0114,-0.0173,0,-0.0052,0.0001,0.0006,0.0053,0.0081,0.007,0.0088,0.0092,0.0087,0.0094,0.0053,0.0055,0.001,0.0006,-0.0023,-0.0073,-0.01,-0.0078,-0.0164,-0.0166,-0.0188,-0.0182,-0.0188,-0.0241,-0.0175,-0.0176,-0.0176,0,-0.0012,0.0019,0.0074,0.0119,0.013,0.015,0.0181,0.0196,0.0193,0.0188,0.0171,0.0138,0.0106,0.006,-0.0021,-0.0006,-0.007,-0.0119,-0.0123,-0.0161,-0.0195,-0.0247,-0.0249,-0.0409,-0.0181,-0.018,-0.018,0,0.002,0.0071,0.0118,0.0134,0.0174,0.0193,0.0213,0.0226,0.0257,0.0249,0.026,0.021,0.0189,0.0102,-0.0004,-0.0012,-0.0102,-0.0126,-0.0211,-0.0214,-0.0243,-0.0248,-0.0406,-0.0187,-0.0187,-0.0187,-0.0186,0,0.0062,0.0102,0.0138,0.0167,0.0228,0.0237,0.03,0.0308,0.0332,0.0379,0.0314,0.0328,0.0198,0.0128,0.0021,-0.0101,-0.0085,-0.0203,-0.0229,-0.0229,-0.0231,-0.0391,-0.0495,-0.0189,-0.0188,-0.0188,-0.0188,0,0.0097,0.0118,0.0182,0.0229,0.0249,0.0295,0.0367,0.0415,0.0419,0.0472,0.0471,0.0421,0.033,0.0189,0.005,-0.006,-0.0288,-0.0229,-0.0222,-0.0247,-0.0475,-0.0575,-0.0747,-0.0871,-0.033,-0.0331,-0.0332,0,0.0123,0.0157,0.0231,0.0277,0.0304,0.0371,0.0425,0.0458,0.0519,0.0536,0.0572,0.0492,0.0466,0.0244,0.003,-0.0167,-0.0327,-0.0313,-0.0331,-0.0489,-0.0621,-0.0672,-0.0769,-0.0356,-0.0357,-0.0358,-0.0358,0,0.0173,0.0197,0.0252,0.0345,0.0411,0.0493,0.0572,0.0633,0.0673,0.071,0.0749,0.0724,0.0502,0.0313,0.0023,-0.0135,-0.0458,-0.0334,-0.0501,-0.0657,-0.0721,-0.0851,-0.0322,-0.0365,-0.0364,-0.0364,-0.0364,-0.0363,0.0213,0.0262,0.0334,0.0425,0.0506,0.061,0.069,0.0774,0.087,0.0949,0.0902,0.0911,0.0595,0.0208,-0.0054,-0.0514,-0.0522,-0.0632,-0.0741,-0.0776,-0.0902,-0.0389,-0.0459,-0.0459,-0.0459,-0.0458,-0.0458,0,0.0267,0.0325,0.0413,0.0525,0.0626,0.0654,0.0789,0.0876,0.0998,0.1078,0.1115,0.0975,0.0573,0.0143,-0.046,-0.0814,-0.0979,-0.1031,-0.1117,-0.1201,-0.0739,-0.0745,-0.0877,-0.0877,-0.0877,-0.0877,-0.0876,-0.0876,0.0297,0.0392,0.044,0.0608,0.069,0.083,0.0913,0.1038,0.1136,0.1239,0.1263,0.1236,0.0885,-0.0171,-0.0951,-0.1176,-0.1488,-0.1536,-0.1705,-0.1391,-0.1361,-0.1333,-0.1363,-0.1622,-0.1623,-0.2114,-0.2119,-0.2122]}],[{"header":{"parameterUnit":"m.s-1","parameterCategory":2,"la1":30.2991,"la2":30.254,"lo1":-89.0895,"lo2":-89.0444,"dy":0.0017,"dx":0.0017,"nx":28,"ny":28,"refTime":"2025-12-01T09:00:00:Z","depth":"2","parameterNumber":2,"parameterNumberName":"U-component_of_CURRENTS"},"data":[0,0,0,0,0,0,0,0,0,0,0,0,0,0,0,0,0,0,0,0,0,0,0,0,0,0,0,0,0,0,0,0,0,0,0,0,0,0,0,0,0,0,0,0,0,0,0,0,0,0,0,0,0,0,0,0,0,0,0.205,0.205,0,0.2043,0.2043,0.2043,0.2022,0.2021,0.2021,0.2021,0.1988,0.1988,0.1987,0,0,0,0,0,0,0,0,0,0,0,0,0,0.2048,0.2048,0.205,0.205,0.205,0.2043,0.2043,0.2043,0.2022,0.2021,0.2021,0.2021,0.1988,0.1988,0.1987,0,0,0,0,0,0,0,0,0,0,0,0,0,0.2044,0.2048,0.205,0.204,0.2039,0.2043,0.2043,0.2043,0.2022,0.2021,0.2021,0.2021,0.1989,0.1988,0.1987,0.1991,0,0,0.1984,0.1984,0,0,0,0,0,0,0,0,0.2045,0.2044,0.2041,0.2041,0.204,0.2034,0.203,0.2025,0.2022,0.2027,0.2021,0.202,0.2003,0.2001,0.1998,0.1989,0.1988,0.1984,0.1984,0.1983,0.1983,0,0,0,0,0,0,0,0.2045,0.2044,0.2045,0.2041,0.204,0.2037,0.2036,0.2029,0.2016,0.2026,0.2025,0.2027,0.2002,0.1999,0.1997,0.1988,0.1984,0.1983,0.1983,0.1983,0.1998,0.1999,0,0,0,0,0,0,0.2049,0.2045,0.2046,0.2045,0.2043,0.2038,0.2036,0.2035,0.2016,0.2014,0.2028,0.2026,0.2001,0.1998,0.1996,0.2017,0.1983,0.1983,0.1982,0.1997,0.1998,0.1999,0,0,0,0,0,0,0.2049,0.2049,0.2046,0.2046,0.2046,0.2038,0.2037,0.2035,0.2036,0.2018,0.2014,0.2031,0.2001,0.1997,0.1999,0.2015,0.1982,0.1981,0.1996,0.1997,0.1999,0.2047,0,0,0,0,0,0,0.2049,0.2049,0.2052,0.2047,0.2046,0.2054,0.2038,0.2036,0.2038,0.2036,0.2019,0.2015,0.2,0.2,0.1998,0.2013,0.1981,0.1995,0.1997,0.1998,0.2044,0.205,0.2055,0,0,0,0,0,0.2049,0.2054,0.2052,0.2052,0.2049,0.2055,0.2055,0.2047,0.2039,0.2044,0.2034,0.2016,0.201,0.2,0.1997,0.2012,0.1994,0.1996,0.1998,0.2042,0.2049,0.2055,0,0,0,0,0,0,0.2057,0.2053,0.205,0.2054,0.2058,0.2052,0.2057,0.2052,0.2049,0.2047,0.2026,0.2023,0.203,0.2017,0.2007,0.2023,0.2,0.2001,0.2034,0.204,0.2045,0.2052,0.198,0,0,0,0,0,0.206,0.2062,0.2061,0.2066,0.2069,0.2065,0.2067,0.2064,0.206,0.2058,0.2045,0.2036,0.2037,0.2034,0.2029,0.2037,0.2039,0.2046,0.2051,0.2055,0.206,0.2084,0.2092,0.2006,0.2006,0.2006,0,0,0.2065,0.2064,0.2065,0.2068,0.2069,0.2079,0.2064,0.2073,0.2081,0.2055,0.2059,0.2054,0.2044,0.2054,0.2056,0.2043,0.2082,0.2058,0.2062,0.2064,0.2087,0.2095,0.2103,0.2007,0.2007,0.2007,0,0,0.2079,0.2075,0.2083,0.2088,0.2095,0.2094,0.2099,0.2098,0.2096,0.2105,0.2091,0.2098,0.209,0.209,0.2089,0.2121,0.211,0.2119,0.2149,0.2173,0.218,0.2186,0.2205,0.2213,0.212,0.212,0.212,0,0.2088,0.2093,0.2088,0.21,0.2107,0.2103,0.2118,0.212,0.2119,0.2127,0.2113,0.2124,0.211,0.2134,0.2142,0.2134,0.2143,0.2125,0.218,0.2186,0.2192,0.221,0.2218,0.2123,0.2123,0.2122,0.2122,0,0.2107,0.2114,0.2121,0.2132,0.214,0.2152,0.2156,0.2166,0.2165,0.2169,0.219,0.2179,0.2188,0.2186,0.217,0.2207,0.22,0.2185,0.2164,0.2204,0.222,0.2227,0.2127,0.2126,0.2125,0.2124,0,0,0.2121,0.2132,0.2135,0.2144,0.2157,0.2166,0.2187,0.2208,0.223,0.2231,0.2259,0.2259,0.2259,0.2258,0.2245,0.2259,0.2303,0.224,0.224,0.226,0.2358,0.2373,0.2382,0.23,0.2302,0.2303,0.2355,0,0.214,0.2161,0.2164,0.2188,0.22,0.2207,0.2228,0.2248,0.2264,0.229,0.2294,0.2313,0.2285,0.2294,0.2307,0.2305,0.2324,0.229,0.2316,0.2316,0.2326,0.2391,0.214,0.2168,0.2362,0.2363,0.2364,0,0.2158,0.2169,0.2192,0.2214,0.2221,0.2236,0.2274,0.2294,0.2334,0.2351,0.238,0.238,0.2405,0.2371,0.2401,0.2383,0.2376,0.2371,0.2372,0.2374,0.2345,0.2159,0.2174,0.2376,0.2375,0.2374,0.2374,0,0.2164,0.2189,0.2205,0.2212,0.2238,0.2255,0.2273,0.2314,0.2347,0.2394,0.2428,0.2452,0.2474,0.2474,0.2465,0.2438,0.2497,0.2458,0.2468,0.2468,0.2254,0.2234,0.2485,0.2485,0.2485,0.2485,0.2485,0,0.2177,0.219,0.2208,0.2216,0.2246,0.2263,0.2306,0.2336,0.2393,0.2439,0.2458,0.2504,0.2502,0.253,0.2504,0.2525,0.2535,0.2494,0.2493,0.2266,0.2247,0.2419,0.2411,0.2487,0.2486,0.2486,0.2486,0,0.2176,0.2187,0.2208,0.2235,0.2248,0.2269,0.2324,0.2358,0.2415,0.248,0.2499,0.2564,0.2606,0.2605,0.2617,0.2589,0.2592,0.2592,0.2332,0.2302,0.2533,0.2526,0.2611,0.2612,0.2613,0.2614,0.2615,0,0.2173,0.2183,0.2216,0.2228,0.2239,0.2275,0.23,0.2363,0.2407,0.2513,0.2545,0.262,0.2667,0.2712,0.2627,0.2604,0.265,0.2403,0.2314,0.256,0.2551,0.2543,0.2535,0.2035,0.2031,0.2028,0.2025,0,0.2169,0.2181,0.2194,0.2221,0.2245,0.2274,0.2318,0.2363,0.2439,0.2498,0.2595,0.2648,0.2669,0.2537,0.2515,0.2464,0.2387,0.2341,0.2653,0.207,0.203,0.2017,0.2025,0.1995,0.1998,0.2001,0.2002,0.2003,0.2162,0.2167,0.2184,0.2205,0.2229,0.2253,0.2266,0.2265,0.2321,0.2304,0.2487,0.2421,0.2435,0.2251,0.2193,0.211,0.2278,0.2157,0.2161,0.217,0.2122,0.2088,0.2055,0.2058,0.2061,0.2063,0.2065,0,0.2116,0.2147,0.2165,0.2178,0.2143,0.2208,0.2256,0.2168,0.2127,0.2109,0.2111,0.1925,0.1857,0.1869,0.1686,0.1727,0.1635,0.1679,0.1514,0.1547,0.1575,0.149,0.1259,0.1256,0.1254,0.1252,0,0,0.2099,0.208,0.2083,0.2047,0.2078,0.2005,0.2015,0.1904,0.1822,0.1624,0.1538,0.1612,0.1766,0.1433,0.1438,0.1316,0.1406,0.126,0.1905,0.1739,0.1763,0.1855,0.1764,0,0,0,0,0]},{"header":{"parameterUnit":"m.s-1","parameterCategory":2,"la1":30.2991,"la2":30.254,"lo1":-89.0895,"lo2":-89.0444,"dy":0.0017,"dx":0.0017,"nx":28,"ny":28,"refTime":"2025-12-01T09:00:00:Z","depth":"2","parameterNumber":3,"parameterNumberName":"V-component_of_CURRENTS"},"data":[0,0,0,0,0,0,0,0,0,0,0,0,0,0,0,0,0,0,0,0,0,0,0,0,0,0,0,0,0,0,0,0,0,0,0,0,0,0,0,0,0,0,0,0,0,0,0,0,0,0,0,0,0,0,0,0,0,0,-0.0116,-0.0116,0,-0.0133,-0.0134,-0.0134,-0.0157,-0.0157,-0.0158,-0.0158,-0.0188,-0.0188,-0.0188,0,0,0,0,0,0,0,0,0,0,0,0,0,-0.0124,-0.0124,-0.0116,-0.0116,-0.0116,-0.0133,-0.0134,-0.0134,-0.0157,-0.0157,-0.0158,-0.0158,-0.0187,-0.0188,-0.0189,0,0,0,0,0,0,0,0,0,0,0,0,0,-0.013,-0.0124,-0.0116,-0.0129,-0.0131,-0.0133,-0.0134,-0.0134,-0.0157,-0.0157,-0.0158,-0.0158,-0.0187,-0.0188,-0.0189,-0.0183,0,0,-0.0191,-0.0191,0,0,0,0,0,0,0,0,-0.0129,-0.0129,-0.0127,-0.0128,-0.013,-0.0143,-0.0147,-0.0151,-0.0157,-0.0148,-0.0158,-0.0159,-0.0173,-0.0175,-0.0178,-0.0185,-0.0186,-0.0191,-0.0191,-0.0192,-0.0192,0,0,0,0,0,0,0,-0.0129,-0.0129,-0.0123,-0.0127,-0.0129,-0.0142,-0.0143,-0.0148,-0.0158,-0.0148,-0.015,-0.0151,-0.0174,-0.0177,-0.0179,-0.0186,-0.0191,-0.0191,-0.0192,-0.0192,-0.0194,-0.0194,0,0,0,0,0,0,-0.0124,-0.0128,-0.0123,-0.0124,-0.013,-0.0141,-0.0143,-0.0139,-0.0158,-0.0161,-0.015,-0.0152,-0.0176,-0.0178,-0.018,-0.0169,-0.0192,-0.0192,-0.0193,-0.0195,-0.0194,-0.0194,0,0,0,0,0,0,-0.0124,-0.0123,-0.0122,-0.0126,-0.0127,-0.014,-0.0136,-0.0139,-0.0143,-0.0159,-0.0163,-0.0152,-0.0176,-0.0179,-0.0181,-0.017,-0.0193,-0.0193,-0.0195,-0.0194,-0.0194,-0.015,0,0,0,0,0,0,-0.0124,-0.0122,-0.0118,-0.0126,-0.0127,-0.0117,-0.0136,-0.0139,-0.0143,-0.0145,-0.0161,-0.0165,-0.0177,-0.018,-0.0182,-0.0172,-0.0194,-0.0195,-0.0195,-0.0194,-0.0152,-0.0148,-0.0145,0,0,0,0,0,-0.0124,-0.0112,-0.0118,-0.0118,-0.012,-0.0117,-0.0118,-0.013,-0.0142,-0.0137,-0.0151,-0.0164,-0.0177,-0.018,-0.0183,-0.0172,-0.0196,-0.0195,-0.0194,-0.0154,-0.0149,-0.0145,0,0,0,0,0,0,-0.0115,-0.0113,-0.012,-0.0109,-0.0111,-0.012,-0.0117,-0.0127,-0.0135,-0.0139,-0.0158,-0.0161,-0.0161,-0.0172,-0.0175,-0.0172,-0.0189,-0.0189,-0.0158,-0.0154,-0.015,-0.0137,-0.0194,0,0,0,0,0,-0.0111,-0.0101,-0.0105,-0.0097,-0.0096,-0.0107,-0.0109,-0.0116,-0.0123,-0.0128,-0.0139,-0.0152,-0.0158,-0.0161,-0.0169,-0.0164,-0.0184,-0.016,-0.0157,-0.0153,-0.0145,-0.0168,-0.0165,-0.0191,-0.0191,-0.0191,0,0,-0.0107,-0.0104,-0.01,-0.0095,-0.0098,-0.0085,-0.0109,-0.0107,-0.0098,-0.0129,-0.0122,-0.0139,-0.0155,-0.0151,-0.0151,-0.0159,-0.0158,-0.0152,-0.0149,-0.0142,-0.0166,-0.0164,-0.0162,-0.019,-0.019,-0.019,0,0,-0.0087,-0.009,-0.0073,-0.0069,-0.0068,-0.0072,-0.0069,-0.0075,-0.008,-0.0077,-0.0098,-0.0107,-0.0116,-0.0124,-0.0129,-0.011,-0.0139,-0.0115,-0.0083,-0.0105,-0.0103,-0.0102,-0.0128,-0.0129,-0.0111,-0.0111,-0.0111,0,-0.0083,-0.0059,-0.0068,-0.0048,-0.0039,-0.0062,-0.0039,-0.0045,-0.0052,-0.0049,-0.0069,-0.0084,-0.0102,-0.0094,-0.009,-0.0101,-0.0121,-0.0098,-0.01,-0.0099,-0.0099,-0.0126,-0.0127,-0.0109,-0.0109,-0.011,-0.011,0,-0.0046,-0.0028,-0.0018,0.0002,0.001,0.0024,0.002,0.002,0.0007,0.0002,0.0001,-0.0029,-0.0036,-0.0047,-0.0063,-0.006,-0.008,-0.0095,-0.011,-0.0093,-0.0123,-0.0126,-0.0106,-0.0107,-0.0107,-0.0108,0,0,-0.0033,0.0003,0.0006,0.003,0.004,0.0054,0.0066,0.0078,0.0095,0.0069,0.0084,0.0058,0.0037,0.0028,0.0001,-0.002,-0.0039,-0.0051,-0.0053,-0.0074,-0.0092,-0.0118,-0.0124,-0.0057,-0.0057,-0.0057,-0.0117,0,-0.0001,0.0052,0.0058,0.0107,0.0136,0.0125,0.0144,0.0149,0.0144,0.0151,0.011,0.0112,0.0067,0.0062,0.0034,-0.0016,-0.0043,-0.0021,-0.0107,-0.011,-0.0132,-0.0126,-0.0075,-0.0125,-0.012,-0.012,-0.012,0,0.0038,0.007,0.0125,0.0173,0.0184,0.0205,0.0236,0.0253,0.025,0.0245,0.0228,0.0195,0.0163,0.0116,0.0035,0.0051,-0.0014,-0.0063,-0.0067,-0.0105,-0.014,-0.014,-0.013,-0.0125,-0.0125,-0.0124,-0.0124,0,0.0068,0.012,0.0169,0.0184,0.0227,0.0247,0.0267,0.0281,0.0313,0.0305,0.0316,0.0266,0.0244,0.0158,0.0051,0.0044,-0.0046,-0.0071,-0.0156,-0.0159,-0.0139,-0.014,-0.0131,-0.0131,-0.0131,-0.0131,-0.013,0,0.0108,0.0149,0.0187,0.0217,0.0279,0.0289,0.0352,0.0361,0.0387,0.0434,0.0369,0.0383,0.0253,0.0183,0.0076,-0.0046,-0.003,-0.0148,-0.0174,-0.0124,-0.0123,-0.014,-0.0141,-0.0133,-0.0132,-0.0132,-0.0132,0,0.0141,0.0163,0.0228,0.0278,0.0298,0.0344,0.0418,0.0467,0.0472,0.0526,0.0524,0.0474,0.0382,0.0242,0.0103,-0.0006,-0.0126,-0.0175,-0.0112,-0.0129,-0.0232,-0.0229,-0.0275,-0.0277,-0.0278,-0.0279,-0.0279,0,0.0166,0.02,0.0276,0.0323,0.035,0.0418,0.0474,0.0509,0.057,0.0588,0.0624,0.0544,0.0519,0.0296,0.0105,-0.0087,-0.0135,-0.0201,-0.0211,-0.0225,-0.0246,-0.0241,-0.0237,-0.0169,-0.0169,-0.0168,-0.0168,0,0.0215,0.0238,0.0294,0.0388,0.0454,0.0539,0.0619,0.068,0.0722,0.0764,0.0802,0.0778,0.0573,0.0405,0.0122,-0.0013,-0.0168,-0.0206,-0.0228,-0.0143,-0.013,-0.0149,-0.0147,-0.0167,-0.0167,-0.0167,-0.0167,-0.0167,0.0253,0.0302,0.0375,0.0467,0.0549,0.0653,0.0735,0.0843,0.0946,0.104,0.0962,0.0945,0.0709,0.0392,0.0139,-0.0139,-0.0138,-0.0243,-0.0241,-0.0239,-0.022,-0.0209,-0.0258,-0.0258,-0.0259,-0.0259,-0.026,0,0.0324,0.0363,0.0452,0.0566,0.0687,0.0696,0.0833,0.0956,0.1115,0.1164,0.1206,0.0993,0.0766,0.0473,0.009,-0.0155,-0.016,-0.0258,-0.0201,-0.02,-0.02,-0.0176,-0.0204,-0.0205,-0.0206,-0.0206,0,0,0.0359,0.0461,0.051,0.0688,0.0754,0.0924,0.1009,0.117,0.1267,0.1383,0.1352,0.1264,0.0876,0.0606,0.0272,0.0037,-0.0026,-0.0014,-0.0029,0.0081,0.0085,-0.0161,-0.0121,0,0,0,0,0]}],[{"header":{"parameterUnit":"m.s-1","parameterCategory":2,"la1":30.2991,"la2":30.254,"lo1":-89.0895,"lo2":-89.0444,"dy":0.0017,"dx":0.0017,"nx":28,"ny":28,"refTime":"2025-12-01T09:00:00:Z","depth":"4","parameterNumber":2,"parameterNumberName":"U-component_of_CURRENTS"},"data":[0,0,0,0,0,0,0,0,0,0,0,0,0,0,0,0,0,0,0,0,0,0,0,0,0,0,0,0,0,0,0,0,0,0,0,0,0,0,0,0,0,0,0,0,0,0,0,0,0,0,0,0,0,0,0,0,0,0,0.0946,0.0946,0,0.0979,0.0979,0.098,0.1009,0.1009,0.101,0.101,0.1061,0.1062,0.1063,0,0,0,0,0,0,0,0,0,0,0,0,0,0.0908,0.0909,0.0945,0.0946,0.0947,0.0979,0.098,0.098,0.1009,0.1009,0.101,0.101,0.1061,0.1062,0.1063,0,0,0,0,0,0,0,0,0,0,0,0,0,0.093,0.0909,0.0945,0.0966,0.0968,0.0979,0.098,0.098,0.1009,0.1009,0.101,0.1011,0.106,0.1062,0.1063,0.1058,0,0,0.1067,0.1068,0,0,0,0,0,0,0,0,0.0929,0.0931,0.0963,0.0965,0.0967,0.0992,0.0985,0.1007,0.1008,0.0992,0.101,0.1011,0.104,0.1043,0.1045,0.106,0.1062,0.1067,0.1068,0.1069,0.1069,0,0,0,0,0,0,0,0.0927,0.093,0.0957,0.0963,0.0966,0.0975,0.0978,0.0989,0.1011,0.0993,0.0996,0.1002,0.1041,0.1044,0.1047,0.1063,0.1067,0.1069,0.107,0.107,0.1169,0.117,0,0,0,0,0,0,0.0925,0.0928,0.0956,0.0959,0.0951,0.0975,0.0979,0.0982,0.101,0.1016,0.1001,0.1003,0.1041,0.1045,0.1049,0.1126,0.1069,0.107,0.1071,0.1167,0.1169,0.1171,0,0,0,0,0,0,0.0924,0.0927,0.0955,0.0946,0.095,0.0975,0.0978,0.0982,0.1012,0.1016,0.1022,0.103,0.1042,0.1047,0.1088,0.1125,0.1071,0.1072,0.1165,0.1168,0.117,0.1227,0,0,0,0,0,0,0.0923,0.0927,0.0941,0.0945,0.0951,0.0979,0.0978,0.0983,0.1014,0.1017,0.1042,0.1046,0.1043,0.1086,0.1089,0.1126,0.1073,0.1163,0.1166,0.1169,0.1223,0.1231,0.1238,0,0,0,0,0,0.0921,0.0932,0.0941,0.0945,0.0965,0.098,0.0983,0.1002,0.1015,0.1031,0.1055,0.1047,0.111,0.1088,0.1092,0.113,0.1161,0.1165,0.1169,0.1219,0.123,0.1238,0,0,0,0,0,0,0.0926,0.0937,0.0946,0.0962,0.0979,0.0986,0.1006,0.1018,0.1048,0.1062,0.1065,0.107,0.1121,0.1118,0.1095,0.1169,0.1136,0.1141,0.1173,0.1183,0.1191,0.1194,0.1074,0,0,0,0,0,0.0933,0.0946,0.0957,0.0974,0.0985,0.1001,0.1015,0.103,0.105,0.1065,0.1085,0.111,0.1135,0.1154,0.1172,0.1209,0.121,0.1238,0.1246,0.1253,0.126,0.1295,0.1306,0.1184,0.1184,0.1184,0,0,0.094,0.0949,0.0958,0.0977,0.0993,0.1014,0.1012,0.1043,0.107,0.1065,0.1121,0.1139,0.1152,0.1197,0.122,0.1203,0.1289,0.1258,0.1263,0.1267,0.13,0.1312,0.1322,0.1187,0.1187,0.1186,0,0,0.0954,0.0971,0.0986,0.1003,0.1033,0.1043,0.1058,0.1084,0.1109,0.1156,0.1165,0.1207,0.1244,0.1262,0.1273,0.1336,0.1328,0.1349,0.1393,0.1427,0.1437,0.1446,0.1462,0.1472,0.1354,0.1354,0.1354,0,0.0968,0.0984,0.0995,0.1015,0.1037,0.106,0.1085,0.1111,0.1152,0.1181,0.1186,0.1265,0.1274,0.1329,0.1353,0.1353,0.1367,0.1354,0.1437,0.1446,0.1454,0.1467,0.1478,0.1357,0.1357,0.1357,0.1356,0,0.0985,0.1011,0.1024,0.1057,0.1081,0.1109,0.114,0.1181,0.1218,0.1245,0.1319,0.134,0.1389,0.1401,0.1397,0.1466,0.1455,0.144,0.1409,0.1469,0.148,0.149,0.1362,0.1361,0.136,0.1359,0,0,0.0985,0.1027,0.1036,0.106,0.1107,0.1126,0.1183,0.1235,0.1286,0.1336,0.14,0.1449,0.1475,0.149,0.1499,0.1528,0.1593,0.1517,0.1517,0.1526,0.1667,0.1554,0.1553,0.1599,0.1601,0.1603,0.1651,0,0.1001,0.1039,0.1061,0.1113,0.1135,0.1179,0.123,0.1285,0.1341,0.141,0.145,0.1516,0.1505,0.1544,0.1574,0.1592,0.1622,0.1581,0.1613,0.1614,0.1501,0.1562,0.1609,0.1658,0.166,0.1661,0.1662,0,0.101,0.1035,0.1082,0.1143,0.116,0.1202,0.1293,0.1343,0.1437,0.1485,0.1558,0.1591,0.1658,0.1635,0.17,0.1679,0.1684,0.1686,0.1688,0.1569,0.1518,0.1587,0.1679,0.1678,0.1676,0.1675,0.1674,0,0.0994,0.1052,0.109,0.1111,0.1183,0.1229,0.1282,0.1375,0.1433,0.1546,0.1602,0.1677,0.173,0.1755,0.1766,0.1748,0.1819,0.179,0.169,0.1682,0.1742,0.1732,0.1835,0.1835,0.1835,0.1835,0.1835,0,0.0989,0.1025,0.1092,0.1113,0.1179,0.1236,0.1326,0.1393,0.1498,0.1565,0.1647,0.1702,0.1767,0.1808,0.1801,0.1774,0.1852,0.1709,0.1693,0.1764,0.1757,0.1748,0.1737,0.1836,0.1836,0.1836,0.1835,0,0.0962,0.1006,0.1055,0.1138,0.1172,0.1225,0.1343,0.1401,0.1513,0.1603,0.1644,0.1748,0.1797,0.1834,0.1875,0.1811,0.1799,0.1769,0.1849,0.1835,0.163,0.1622,0.1662,0.1659,0.1656,0.1653,0.1651,0,0.0947,0.097,0.1064,0.1098,0.1142,0.1228,0.1284,0.1402,0.1456,0.1607,0.1632,0.1734,0.1782,0.175,0.1797,0.1785,0.1756,0.1737,0.1676,0.1635,0.1616,0.1612,0.1608,0.1647,0.1646,0.1645,0.1644,0,0.0913,0.096,0.0997,0.1068,0.1131,0.1187,0.1272,0.1303,0.1428,0.1543,0.1582,0.1608,0.1659,0.1677,0.1686,0.167,0.1741,0.1705,0.1711,0.1653,0.1616,0.16,0.1599,0.1634,0.1636,0.1637,0.1637,0,0.0891,0.0908,0.0965,0.102,0.1089,0.1113,0.1171,0.1221,0.1287,0.144,0.1449,0.1546,0.1642,0.1619,0.1624,0.1606,0.157,0.15,0.1515,0.1527,0.1458,0.139,0.1335,0,0,0,0,0,0.0857,0.0864,0.0909,0.0949,0.1012,0.1048,0.1142,0.1197,0.1314,0.1302,0.1371,0.1407,0.1428,0.1481,0.1432,0.1561,0.1575,0.1496,0.1501,0.1578,0.159,0.152,0,0,0,0,0,0,0.0828,0.0865,0.0879,0.0877,0.0888,0.0937,0.0988,0.1067,0.1065,0.1193,0.1212,0.1309,0.1352,0.1434,0.1399,0.1414,0.1384,0.156,0.1556,0.1572,0.1582,0.1592,0.1524,0,0,0,0,0]},{"header":{"parameterUnit":"m.s-1","parameterCategory":2,"la1":30.2991,"la2":30.254,"lo1":-89.0895,"lo2":-89.0444,"dy":0.0017,"dx":0.0017,"nx":28,"ny":28,"refTime":"2025-12-01T09:00:00:Z","depth":"4","parameterNumber":3,"parameterNumberName":"V-component_of_CURRENTS"},"data":[0,0,0,0,0,0,0,0,0,0,0,0,0,0,0,0,0,0,0,0,0,0,0,0,0,0,0,0,0,0,0,0,0,0,0,0,0,0,0,0,0,0,0,0,0,0,0,0,0,0,0,0,0,0,0,0,0,0,0.0393,0.0393,0,0.0383,0.0383,0.0383,0.0374,0.0374,0.0374,0.0374,0.0356,0.0356,0.0356,0,0,0,0,0,0,0,0,0,0,0,0,0,0.0381,0.0381,0.0393,0.0393,0.0393,0.0383,0.0383,0.0383,0.0374,0.0374,0.0374,0.0374,0.0357,0.0356,0.0356,0,0,0,0,0,0,0,0,0,0,0,0,0,0.038,0.0381,0.0393,0.0387,0.0386,0.0383,0.0383,0.0383,0.0374,0.0374,0.0374,0.0374,0.0357,0.0356,0.0356,0.0356,0,0,0.0354,0.0354,0,0,0,0,0,0,0,0,0.038,0.0381,0.0388,0.0388,0.0387,0.038,0.0372,0.0374,0.0375,0.0379,0.0374,0.0374,0.0363,0.0362,0.0361,0.0355,0.0355,0.0354,0.0354,0.0353,0.0353,0,0,0,0,0,0,0,0.0381,0.0381,0.0389,0.0388,0.0387,0.0377,0.0377,0.0373,0.0373,0.0379,0.0378,0.0377,0.0363,0.0362,0.0361,0.0354,0.0354,0.0354,0.0353,0.0353,0.0332,0.0332,0,0,0,0,0,0,0.0383,0.0381,0.039,0.0389,0.0383,0.0377,0.0377,0.0382,0.0373,0.0371,0.0377,0.0376,0.0363,0.0362,0.036,0.036,0.0353,0.0353,0.0353,0.0332,0.0332,0.0332,0,0,0,0,0,0,0.0383,0.0384,0.039,0.0384,0.0384,0.0378,0.0384,0.0382,0.0382,0.0371,0.037,0.0378,0.0363,0.0361,0.0358,0.0359,0.0353,0.0352,0.0333,0.0332,0.0332,0.0359,0,0,0,0,0,0,0.0383,0.0384,0.0391,0.0385,0.0385,0.0394,0.0384,0.0382,0.0382,0.0381,0.0372,0.037,0.0362,0.0359,0.0358,0.0358,0.0352,0.0333,0.0332,0.0332,0.0358,0.0359,0.036,0,0,0,0,0,0.0382,0.0395,0.0392,0.0393,0.0394,0.0394,0.0393,0.0388,0.0382,0.0386,0.0378,0.037,0.0355,0.0359,0.0357,0.0357,0.0333,0.0333,0.0332,0.0357,0.0359,0.036,0,0,0,0,0,0,0.0393,0.0395,0.0391,0.0404,0.04,0.0392,0.0397,0.039,0.0387,0.0386,0.0373,0.0371,0.0367,0.0357,0.0362,0.0348,0.0341,0.034,0.036,0.0362,0.0363,0.0371,0.0351,0,0,0,0,0,0.0399,0.041,0.0404,0.0414,0.0414,0.0405,0.0404,0.0399,0.0394,0.0392,0.0384,0.0373,0.0363,0.036,0.0351,0.0348,0.0328,0.0344,0.0345,0.0346,0.035,0.0317,0.0315,0.033,0.033,0.033,0,0,0.0406,0.0408,0.0414,0.0417,0.0414,0.042,0.0405,0.0406,0.041,0.0391,0.0394,0.0379,0.0363,0.0359,0.0355,0.0352,0.033,0.0345,0.0347,0.035,0.0316,0.0314,0.0313,0.033,0.033,0.033,0,0,0.0425,0.0427,0.0441,0.044,0.0438,0.0433,0.0434,0.0427,0.0423,0.0421,0.0405,0.0391,0.0381,0.0368,0.036,0.0361,0.0338,0.0355,0.0369,0.0336,0.0335,0.0333,0.0304,0.03,0.0355,0.0355,0.0355,0,0.0433,0.0451,0.0444,0.0454,0.0459,0.0441,0.0454,0.0447,0.0439,0.0437,0.0426,0.0399,0.0385,0.0374,0.0372,0.0364,0.0343,0.0368,0.0338,0.0336,0.0334,0.0305,0.03,0.0356,0.0356,0.0356,0.0356,0,0.0459,0.0473,0.0481,0.049,0.0493,0.0501,0.0491,0.0488,0.0477,0.0467,0.0453,0.0426,0.041,0.0398,0.0387,0.0367,0.0355,0.0344,0.0337,0.0335,0.0304,0.0298,0.0358,0.0358,0.0357,0.0357,0,0,0.0475,0.0497,0.05,0.0514,0.0514,0.052,0.0522,0.0522,0.0525,0.05,0.0497,0.0467,0.0446,0.0434,0.041,0.038,0.0344,0.0359,0.0357,0.0335,0.0273,0.0262,0.0255,0.0328,0.0327,0.0327,0.0257,0,0.0498,0.0532,0.0534,0.0563,0.058,0.0567,0.0574,0.0568,0.0555,0.0545,0.0503,0.0492,0.0461,0.0451,0.0415,0.0366,0.0331,0.0365,0.0275,0.0272,0.0267,0.0248,0.0324,0.0252,0.0251,0.025,0.0249,0,0.0521,0.0543,0.0581,0.0607,0.0612,0.0626,0.0634,0.0639,0.0616,0.0603,0.0573,0.0539,0.0494,0.0465,0.0373,0.0396,0.0338,0.0293,0.0289,0.0267,0.0251,0.0254,0.0239,0.0239,0.024,0.0241,0.0242,0,0.0542,0.0576,0.0611,0.0619,0.0642,0.0656,0.0666,0.0659,0.0671,0.064,0.0636,0.0573,0.0544,0.0461,0.0367,0.0368,0.0261,0.025,0.0183,0.0182,0.0202,0.0204,0.0179,0.0179,0.0179,0.0179,0.0179,0,0.0563,0.0592,0.0626,0.0646,0.0689,0.069,0.0728,0.0721,0.072,0.0735,0.0671,0.0655,0.0541,0.0466,0.0375,0.0263,0.0264,0.0182,0.0161,0.0214,0.0219,0.0198,0.0201,0.0176,0.0177,0.0178,0.0178,0,0.0579,0.06,0.0647,0.0686,0.0702,0.0734,0.0781,0.0805,0.0791,0.0803,0.0794,0.0716,0.0613,0.0494,0.0357,0.028,0.0171,0.013,0.0199,0.0184,0.011,0.0115,0.0046,0.0045,0.0044,0.0044,0.0043,0,0.059,0.0617,0.0683,0.0717,0.074,0.079,0.0829,0.0842,0.0868,0.0841,0.0845,0.0749,0.0681,0.0481,0.0352,0.0172,0.0146,0.0088,0.0092,0.0109,0.0095,0.0102,0.0108,0.0042,0.0041,0.0041,0.0041,0,0.0614,0.0642,0.0682,0.0755,0.0808,0.087,0.092,0.0941,0.095,0.0937,0.0878,0.0762,0.0642,0.0481,0.0338,0.0211,0.0124,0.0078,0.0079,0.0082,0.0102,0.0091,0.0098,0.0038,0.0038,0.0039,0.0039,0,0.0636,0.067,0.0729,0.0789,0.0861,0.0924,0.095,0.0971,0.0989,0.0948,0.0929,0.0785,0.0703,0.0501,0.0373,0.0241,0.0205,0.0162,0.0158,0.016,0.0211,0.0254,0.0215,0,0,0,0,0,0.0653,0.0695,0.0757,0.083,0.09,0.0945,0.1001,0.1018,0.1022,0.0987,0.0956,0.0838,0.0625,0.0535,0.04,0.0358,0.0187,0.0196,0.0138,0.0021,0.0025,0.0064,0,0,0,0,0,0,0.0668,0.073,0.0759,0.085,0.0906,0.0992,0.1031,0.1036,0.1012,0.0984,0.0875,0.0805,0.0605,0.0705,0.0399,0.0358,0.0301,0.0095,0.0092,0.002,0.0023,0.0025,0.0067,0,0,0,0,0]}]]